Time,TemperatureF,DewpointF,PressureIn,WindDirection,WindDirectionDegrees,WindSpeedMPH,WindSpeedGustMPH,Humidity,HourlyPrecipIn,Conditions,Clouds,dailyrainin,SoftwareType,DateUTC
2013-11-10 00:23:00,53.0,36.0,-100.00,SW,215,9.0,15.0,52,0.00,,,-99.99,,2013-11-10 05:23:00,
2013-11-10 00:53:00,53.0,37.0,-100.00,WSW,240,14.0,19.0,54,0.00,,,-99.99,,2013-11-10 05:53:00,
2013-11-10 01:22:00,52.0,37.0,-100.00,WSW,245,11.0,21.0,56,0.00,,,-99.99,,2013-11-10 06:22:00,
2013-11-10 01:52:00,51.0,37.0,-100.00,SW,235,7.0,16.0,57,0.00,,,-99.99,,2013-11-10 06:52:00,
2013-11-10 02:22:00,51.0,37.0,-100.00,SW,235,9.0,15.0,59,0.00,,,-99.99,,2013-11-10 07:22:00,
2013-11-10 02:52:00,49.0,37.0,-100.00,SW,235,8.0,12.0,61,0.00,,,-99.99,,2013-11-10 07:52:00,
2013-11-10 03:22:00,48.0,37.0,-100.00,SW,220,10.0,16.0,63,0.00,,,-99.99,,2013-11-10 08:22:00,
2013-11-10 03:52:00,48.0,37.0,-100.00,SW,225,7.0,14.0,64,0.00,,,-99.99,,2013-11-10 08:52:00,
2013-11-10 04:21:00,47.0,36.0,-100.00,SW,235,8.0,14.0,65,0.00,,,-99.99,,2013-11-10 09:21:00,
2013-11-10 04:53:00,46.0,36.0,-100.00,SW,235,7.0,13.0,67,0.00,,,-99.99,,2013-11-10 09:53:00,
2013-11-10 05:23:00,46.0,35.0,-100.00,SW,230,15.0,21.0,65,0.00,,,-99.99,,2013-11-10 10:23:00,
2013-11-10 05:52:00,45.0,33.0,-100.00,WSW,255,10.0,25.0,60,0.00,,,-99.99,,2013-11-10 10:52:00,
2013-11-10 06:22:00,45.0,32.0,-100.00,WSW,245,10.0,20.0,60,0.00,,,-99.99,,2013-11-10 11:22:00,
2013-11-10 06:52:00,45.0,30.0,-100.00,West,260,11.0,22.0,54,0.00,,,-99.99,,2013-11-10 11:52:00,
2013-11-10 07:21:00,45.0,29.0,-100.00,WSW,240,14.0,22.0,52,0.00,,,-99.99,,2013-11-10 12:21:00,
2013-11-10 07:52:00,45.0,29.0,-100.00,West,270,9.0,19.0,52,0.00,,,-99.99,,2013-11-10 12:52:00,
2013-11-10 08:21:00,44.0,27.0,-100.00,West,265,12.0,22.0,50,0.00,,,-99.99,,2013-11-10 13:21:00,
2013-11-10 08:51:00,44.0,28.0,-100.00,West,270,10.0,19.0,52,0.00,,,-99.99,,2013-11-10 13:51:00,
2013-11-10 09:21:00,44.0,28.0,-100.00,West,260,11.0,17.0,53,0.00,,,-99.99,,2013-11-10 14:21:00,
2013-11-10 09:52:00,44.0,28.0,-100.00,WSW,255,14.0,22.0,53,0.00,,,-99.99,,2013-11-10 14:52:00,
2013-11-10 10:22:00,44.0,26.0,-100.00,West,265,12.0,26.0,49,0.00,,,-99.99,,2013-11-10 15:22:00,
2013-11-10 10:53:00,43.0,25.0,-100.00,WSW,250,18.0,24.0,48,0.00,,,-99.99,,2013-11-10 15:53:00,
2013-11-10 11:23:00,44.0,25.0,-100.00,West,260,13.0,25.0,46,0.00,,,-99.99,,2013-11-10 16:23:00,
2013-11-10 11:53:00,44.0,26.0,-100.00,WSW,255,12.0,23.0,49,0.00,,,-99.99,,2013-11-10 16:53:00,
2013-11-10 12:23:00,43.0,26.0,-100.00,WSW,255,13.0,27.0,49,0.00,,,-99.99,,2013-11-10 17:23:00,
2013-11-10 12:52:00,45.0,26.0,-100.00,WSW,255,13.0,23.0,46,0.00,,,-99.99,,2013-11-10 17:52:00,
2013-11-10 13:24:00,45.0,26.0,-100.00,West,275,12.0,21.0,47,0.00,,,-99.99,,2013-11-10 18:24:00,
2013-11-10 13:52:00,45.0,26.0,-100.00,West,280,7.0,17.0,46,0.00,,,-99.99,,2013-11-10 18:52:00,
2013-11-10 14:22:00,44.0,27.0,-100.00,West,270,9.0,24.0,50,0.00,,,-99.99,,2013-11-10 19:22:00,
2013-11-10 14:52:00,44.0,27.0,-100.00,West,275,11.0,21.0,51,0.00,,,-99.99,,2013-11-10 19:52:00,
2013-11-10 15:22:00,44.0,28.0,-100.00,West,270,12.0,24.0,52,0.00,,,-99.99,,2013-11-10 20:22:00,
2013-11-10 15:52:00,44.0,28.0,-100.00,WSW,255,9.0,16.0,52,0.00,,,-99.99,,2013-11-10 20:52:00,
2013-11-10 16:22:00,45.0,29.0,-100.00,WSW,250,7.0,14.0,52,0.00,,,-99.99,,2013-11-10 21:22:00,
2013-11-10 16:55:00,44.0,28.0,-100.00,West,260,7.0,19.0,53,0.00,,,-99.99,,2013-11-10 21:55:00,
2013-11-10 17:23:00,44.0,29.0,-100.00,WSW,245,11.0,19.0,53,0.00,,,-99.99,,2013-11-10 22:23:00,
2013-11-10 17:54:00,44.0,28.0,-100.00,West,260,9.0,16.0,53,0.00,,,-99.99,,2013-11-10 22:54:00,
2013-11-10 18:22:00,44.0,28.0,-100.00,West,260,7.0,11.0,52,0.00,,,-99.99,,2013-11-10 23:22:00,
2013-11-10 18:52:00,44.0,28.0,-100.00,WSW,245,7.0,10.0,54,0.00,,,-99.99,,2013-11-10 23:52:00,
2013-11-10 19:22:00,43.0,28.0,-100.00,WSW,250,6.0,11.0,55,0.00,,,-99.99,,2013-11-11 00:22:00,
2013-11-10 19:52:00,43.0,28.0,-100.00,SW,225,7.0,9.0,55,0.00,,,-99.99,,2013-11-11 00:52:00,
2013-11-10 20:22:00,43.0,28.0,-100.00,SW,230,7.0,11.0,56,0.00,,,-99.99,,2013-11-11 01:22:00,
2013-11-10 20:52:00,42.0,28.0,-100.00,WSW,245,5.0,12.0,55,0.00,,,-99.99,,2013-11-11 01:52:00,
2013-11-10 21:21:00,42.0,28.0,-100.00,SW,235,4.0,9.0,57,0.00,,,-99.99,,2013-11-11 02:21:00,
2013-11-10 21:52:00,42.0,28.0,-100.00,SW,235,6.0,9.0,57,0.00,,,-99.99,,2013-11-11 02:52:00,
2013-11-10 22:22:00,41.0,28.0,-100.00,SW,235,6.0,9.0,59,0.00,,,-99.99,,2013-11-11 03:22:00,
2013-11-10 22:55:00,41.0,28.0,-100.00,SW,225,6.0,9.0,60,0.00,,,-99.99,,2013-11-11 03:55:00,
2013-11-10 23:24:00,40.0,28.0,-100.00,SW,215,4.0,8.0,62,0.00,,,-99.99,,2013-11-11 04:24:00,
2013-11-10 23:53:00,39.0,28.0,-100.00,SW,235,5.0,11.0,63,0.00,,,-99.99,,2013-11-11 04:53:00,